RYR3628 LPPT-LEZL

Flight info

Callsign RYR3628
Flight time 0h 40m
Altitude 30000
Route DUZOP DCT MINTA N747 OSLEP
Aircraft B738/M-SDE2E3FGHIRWXY/LB1

Departure

Time 2026-04-18 10:16
Airport Lisbon Humberto Delgado Airport (LPPT)

Arrival

Time 2026-04-18 10:57
Airport Seville Airport (LEZL)
Time Latitude Longitude Altitude Speed Heading
2026-04-18 09:55 38.76477 -9.13639 349 ft 0 kts 168°
2026-04-18 10:08 38.76481 -9.13640 347 ft 2 kts 168°
2026-04-18 10:08 38.76499 -9.13645 357 ft 3 kts 168°
2026-04-18 10:08 38.76517 -9.13649 354 ft 3 kts 174°
2026-04-18 10:08 38.76536 -9.13649 352 ft 3 kts 199°
2026-04-18 10:09 38.76552 -9.13637 354 ft 3 kts 236°
2026-04-18 10:09 38.76558 -9.13620 352 ft 1 kts 258°
2026-04-18 10:09 38.76559 -9.13618 352 ft 1 kts 258°
2026-04-18 10:12 38.76557 -9.13626 350 ft 1 kts 258°
2026-04-18 10:12 38.76557 -9.13631 352 ft 0 kts 258°
2026-04-18 10:12 38.76556 -9.13636 353 ft 2 kts 258°
2026-04-18 10:12 38.76550 -9.13672 350 ft 7 kts 258°
2026-04-18 10:13 38.76542 -9.13722 356 ft 10 kts 258°
2026-04-18 10:13 38.76517 -9.13875 347 ft 14 kts 258°
2026-04-18 10:13 38.76538 -9.13927 351 ft 11 kts 337°
2026-04-18 10:13 38.76566 -9.13999 347 ft 11 kts 248°
2026-04-18 10:14 38.76519 -9.14072 346 ft 11 kts 228°
2026-04-18 10:14 38.76499 -9.14182 351 ft 17 kts 286°
2026-04-18 10:14 38.76537 -9.14301 335 ft 5 kts 292°
2026-04-18 10:14 38.76543 -9.14320 336 ft 4 kts 292°
2026-04-18 10:15 38.76567 -9.14382 330 ft 11 kts 308°
2026-04-18 10:15 38.76652 -9.14384 334 ft 20 kts 22°
2026-04-18 10:15 38.76997 -9.14201 352 ft 88 kts 22°
2026-04-18 10:15 38.77758 -9.13793 365 ft 147 kts 23°
2026-04-18 10:16 38.78786 -9.13253 844 ft 158 kts 22°
2026-04-18 10:16 38.79778 -9.12646 1670 ft 161 kts 31°
2026-04-18 10:16 38.80807 -9.11939 2354 ft 173 kts 28°
2026-04-18 10:16 38.81918 -9.11246 3172 ft 178 kts 29°
2026-04-18 10:17 38.83037 -9.10520 3897 ft 188 kts 30°
2026-04-18 10:17 38.84261 -9.09617 4310 ft 217 kts 33°
2026-04-18 10:17 38.85643 -9.08550 4551 ft 244 kts 32°
2026-04-18 10:17 38.87096 -9.07313 4929 ft 261 kts 45°
2026-04-18 10:18 38.88093 -9.05314 5330 ft 272 kts 75°
2026-04-18 10:18 38.88188 -9.02929 6242 ft 268 kts 104°
2026-04-18 10:18 38.87509 -9.00706 7062 ft 270 kts 120°
2026-04-18 10:18 38.86523 -8.98643 7903 ft 274 kts 133°
2026-04-18 10:19 38.85010 -8.97198 8740 ft 274 kts 158°
2026-04-18 10:19 38.83138 -8.96733 9575 ft 278 kts 181°
2026-04-18 10:19 38.81243 -8.97252 10345 ft 283 kts 199°
2026-04-18 10:19 38.79343 -8.98206 10627 ft 306 kts 199°
2026-04-18 10:20 38.77176 -8.98585 10829 ft 327 kts 173°
2026-04-18 10:20 38.74915 -8.97985 11392 ft 336 kts 167°
2026-04-18 10:20 38.72634 -8.97237 12116 ft 340 kts 166°
2026-04-18 10:20 38.70331 -8.96466 12878 ft 344 kts 166°
2026-04-18 10:21 38.68002 -8.95698 13623 ft 348 kts 167°
2026-04-18 10:21 38.65639 -8.94937 14297 ft 352 kts 167°
2026-04-18 10:21 38.63254 -8.94184 14974 ft 355 kts 167°
2026-04-18 10:21 38.60844 -8.93433 15663 ft 358 kts 168°
2026-04-18 10:22 38.58421 -8.92685 16334 ft 361 kts 168°
2026-04-18 10:22 38.55992 -8.91941 16983 ft 365 kts 168°
2026-04-18 10:22 38.53509 -8.91183 17641 ft 368 kts 168°
2026-04-18 10:22 38.51023 -8.90425 18492 ft 365 kts 167°
2026-04-18 10:23 38.48535 -8.89667 19284 ft 362 kts 168°
2026-04-18 10:23 38.46114 -8.88930 19956 ft 363 kts 168°
2026-04-18 10:23 38.43652 -8.88183 20596 ft 364 kts 168°
2026-04-18 10:23 38.41193 -8.87437 21286 ft 363 kts 168°
2026-04-18 10:24 38.38737 -8.86692 21924 ft 363 kts 168°
2026-04-18 10:24 38.36275 -8.85947 22083 ft 364 kts 168°
2026-04-18 10:24 38.33811 -8.85201 22109 ft 366 kts 168°
2026-04-18 10:24 38.31293 -8.84440 22213 ft 380 kts 168°
2026-04-18 10:25 38.28675 -8.83650 22349 ft 394 kts 168°
2026-04-18 10:25 38.25964 -8.82832 22485 ft 407 kts 168°
2026-04-18 10:25 38.23177 -8.81991 22730 ft 416 kts 168°
2026-04-18 10:25 38.20341 -8.81135 23073 ft 422 kts 168°
2026-04-18 10:26 38.17478 -8.80271 23585 ft 423 kts 168°
2026-04-18 10:26 38.14620 -8.79409 24144 ft 421 kts 168°
2026-04-18 10:26 38.11777 -8.78552 24768 ft 418 kts 168°
2026-04-18 10:26 38.08965 -8.77705 25409 ft 414 kts 168°
2026-04-18 10:27 38.06160 -8.76862 25957 ft 413 kts 168°
2026-04-18 10:27 38.03366 -8.76023 26472 ft 412 kts 168°
2026-04-18 10:27 38.00581 -8.75188 27007 ft 411 kts 168°
2026-04-18 10:27 37.97808 -8.74357 27577 ft 409 kts 168°
2026-04-18 10:28 37.95040 -8.73527 28129 ft 407 kts 168°
2026-04-18 10:28 37.92289 -8.72704 28688 ft 406 kts 168°
2026-04-18 10:28 37.89550 -8.71885 29223 ft 404 kts 168°
2026-04-18 10:28 37.86808 -8.71065 29723 ft 404 kts 168°
2026-04-18 10:29 37.84084 -8.70252 30117 ft 404 kts 168°
2026-04-18 10:29 37.78581 -8.68611 30098 ft 404 kts 168°
2026-04-18 10:30 37.73137 -8.66988 30105 ft 402 kts 168°
2026-04-18 10:30 37.67903 -8.64640 30107 ft 409 kts 146°
2026-04-18 10:30 37.65796 -8.62224 30089 ft 414 kts 130°
2026-04-18 10:31 37.64279 -8.59120 30129 ft 417 kts 120°
2026-04-18 10:31 37.61608 -8.52607 30095 ft 418 kts 119°
2026-04-18 10:32 37.58966 -8.46141 30086 ft 408 kts 120°
2026-04-18 10:32 37.57671 -8.43014 30077 ft 396 kts 120°
2026-04-18 10:32 37.56399 -8.39969 30099 ft 391 kts 120°
2026-04-18 10:33 37.53853 -8.33925 29874 ft 392 kts 120°
2026-04-18 10:33 37.52582 -8.30918 29625 ft 387 kts 120°
2026-04-18 10:33 37.51309 -8.27908 29056 ft 389 kts 120°
2026-04-18 10:33 37.50055 -8.24944 28868 ft 381 kts 120°
2026-04-18 10:34 37.48814 -8.22014 28542 ft 377 kts 120°
2026-04-18 10:34 37.47562 -8.19066 28196 ft 390 kts 120°
2026-04-18 10:34 37.46247 -8.15978 27832 ft 409 kts 120°
2026-04-18 10:34 37.44895 -8.12802 27416 ft 413 kts 120°
2026-04-18 10:35 37.43545 -8.09624 27007 ft 411 kts 120°
2026-04-18 10:35 37.42204 -8.06467 26611 ft 407 kts 120°
2026-04-18 10:35 37.40877 -8.03348 26224 ft 403 kts 120°
2026-04-18 10:35 37.39559 -8.00256 25850 ft 399 kts 120°
2026-04-18 10:36 37.38249 -7.97184 25476 ft 397 kts 120°
2026-04-18 10:36 37.36944 -7.94132 25092 ft 396 kts 120°
2026-04-18 10:36 37.35643 -7.91088 24730 ft 395 kts 120°
2026-04-18 10:36 37.34346 -7.88057 24358 ft 393 kts 120°
2026-04-18 10:37 37.33052 -7.85036 23990 ft 391 kts 120°
2026-04-18 10:37 37.31764 -7.82034 23605 ft 389 kts 120°
2026-04-18 10:37 37.30491 -7.79070 23174 ft 386 kts 120°
2026-04-18 10:37 37.29213 -7.76095 22768 ft 384 kts 120°
2026-04-18 10:38 37.27949 -7.73157 22415 ft 381 kts 120°
2026-04-18 10:38 37.26692 -7.70235 22032 ft 379 kts 120°
2026-04-18 10:38 37.25441 -7.67332 21654 ft 376 kts 120°
2026-04-18 10:38 37.24200 -7.64455 21299 ft 374 kts 120°
2026-04-18 10:39 37.22982 -7.61633 20937 ft 372 kts 120°
2026-04-18 10:39 37.21740 -7.58756 20579 ft 369 kts 120°
2026-04-18 10:39 37.20534 -7.55967 20225 ft 367 kts 120°
2026-04-18 10:39 37.19324 -7.53169 19860 ft 365 kts 120°
2026-04-18 10:40 37.18117 -7.50381 19519 ft 363 kts 120°
2026-04-18 10:40 37.16934 -7.47599 19174 ft 360 kts 115°
2026-04-18 10:40 37.16318 -7.44572 18831 ft 360 kts 95°
2026-04-18 10:40 37.16432 -7.41462 18512 ft 358 kts 81°
2026-04-18 10:41 37.16972 -7.38429 18117 ft 356 kts 77°
2026-04-18 10:41 37.17585 -7.35425 17688 ft 355 kts 76°
2026-04-18 10:41 37.18212 -7.32435 17278 ft 354 kts 76°
2026-04-18 10:41 37.18838 -7.29456 16883 ft 352 kts 76°
2026-04-18 10:42 37.19456 -7.26504 16526 ft 349 kts 76°
2026-04-18 10:42 37.20056 -7.23565 16146 ft 347 kts 76°
2026-04-18 10:42 37.20647 -7.20642 15746 ft 346 kts 76°
2026-04-18 10:42 37.21233 -7.17708 15367 ft 346 kts 77°
2026-04-18 10:43 37.21814 -7.14784 15009 ft 345 kts 77°
2026-04-18 10:43 37.22391 -7.11873 14656 ft 343 kts 76°
2026-04-18 10:43 37.22966 -7.08971 14294 ft 342 kts 76°
2026-04-18 10:43 37.23537 -7.06077 13894 ft 342 kts 76°
2026-04-18 10:44 37.24111 -7.03171 13440 ft 343 kts 76°
2026-04-18 10:44 37.24682 -7.00274 13079 ft 341 kts 76°
2026-04-18 10:44 37.25249 -6.97394 12725 ft 339 kts 77°
2026-04-18 10:44 37.25812 -6.94528 12380 ft 337 kts 77°
2026-04-18 10:45 37.26372 -6.91676 12045 ft 335 kts 77°
2026-04-18 10:45 37.26927 -6.88843 11712 ft 334 kts 77°
2026-04-18 10:45 37.27479 -6.86023 11370 ft 332 kts 77°
2026-04-18 10:45 37.28027 -6.83224 11042 ft 329 kts 77°
2026-04-18 10:46 37.28563 -6.80475 10717 ft 327 kts 77°
2026-04-18 10:46 37.29100 -6.77718 10395 ft 324 kts 77°
2026-04-18 10:46 37.29634 -6.74989 10187 ft 318 kts 77°
2026-04-18 10:46 37.30154 -6.72311 9936 ft 314 kts 77°
2026-04-18 10:47 37.30670 -6.69651 9587 ft 313 kts 77°
2026-04-18 10:47 37.31184 -6.67006 9265 ft 311 kts 78°
2026-04-18 10:47 37.31694 -6.64378 8964 ft 309 kts 78°
2026-04-18 10:47 37.32198 -6.61767 8629 ft 307 kts 78°
2026-04-18 10:48 37.32697 -6.59175 8339 ft 304 kts 78°
2026-04-18 10:48 37.33195 -6.56592 8027 ft 303 kts 78°
2026-04-18 10:48 37.33691 -6.54025 7723 ft 302 kts 78°
2026-04-18 10:48 37.34182 -6.51469 7422 ft 300 kts 78°
2026-04-18 10:49 37.34671 -6.48925 7117 ft 299 kts 78°
2026-04-18 10:49 37.35157 -6.46390 6825 ft 298 kts 78°
2026-04-18 10:49 37.35643 -6.43862 6510 ft 298 kts 78°
2026-04-18 10:49 37.36128 -6.41336 6122 ft 295 kts 78°
2026-04-18 10:50 37.36601 -6.38865 5795 ft 287 kts 78°
2026-04-18 10:50 37.37067 -6.36463 5483 ft 280 kts 78°
2026-04-18 10:50 37.37515 -6.34108 5177 ft 273 kts 79°
2026-04-18 10:50 37.37955 -6.31808 4928 ft 269 kts 78°
2026-04-18 10:51 37.38384 -6.29534 4618 ft 266 kts 78°
2026-04-18 10:51 37.38815 -6.27299 4350 ft 260 kts 79°
2026-04-18 10:51 37.39228 -6.25124 4156 ft 251 kts 79°
2026-04-18 10:51 37.39617 -6.23036 4072 ft 240 kts 79°
2026-04-18 10:52 37.39987 -6.21037 3937 ft 229 kts 79°
2026-04-18 10:52 37.40354 -6.19114 3894 ft 224 kts 79°
2026-04-18 10:52 37.40716 -6.17212 3763 ft 224 kts 79°
2026-04-18 10:52 37.41080 -6.15296 3550 ft 227 kts 79°
2026-04-18 10:53 37.41438 -6.13392 3320 ft 226 kts 79°
2026-04-18 10:53 37.41775 -6.11477 3061 ft 223 kts 85°
2026-04-18 10:53 37.41811 -6.09549 2855 ft 219 kts 93°
2026-04-18 10:53 37.41724 -6.07640 2564 ft 219 kts 93°
2026-04-18 10:54 37.41735 -6.05755 2333 ft 210 kts 89°
2026-04-18 10:54 37.41755 -6.03927 2042 ft 207 kts 90°
2026-04-18 10:54 37.41753 -6.02141 1741 ft 202 kts 90°
2026-04-18 10:54 37.41758 -6.00403 1482 ft 197 kts 90°
2026-04-18 10:55 37.41769 -5.98748 1222 ft 180 kts 90°
2026-04-18 10:55 37.41771 -5.97236 1007 ft 167 kts 89°
2026-04-18 10:55 37.41775 -5.95845 864 ft 155 kts 89°
2026-04-18 10:55 37.41779 -5.94507 656 ft 150 kts 89°
2026-04-18 10:56 37.41779 -5.93207 466 ft 150 kts 87°
2026-04-18 10:56 37.41787 -5.91869 247 ft 157 kts 88°
2026-04-18 10:56 37.41788 -5.90536 109 ft 143 kts 88°
2026-04-18 10:56 37.41794 -5.89550 104 ft 81 kts 90°
2026-04-18 10:57 37.41796 -5.89027 106 ft 47 kts 89°
2026-04-18 10:57 37.41829 -5.88782 108 ft 20 kts 30°
2026-04-18 10:57 37.41957 -5.88755 110 ft 14 kts 349°
2026-04-18 10:57 37.41984 -5.88867 106 ft 15 kts 270°
2026-04-18 10:58 37.41983 -5.89001 104 ft 15 kts 269°
2026-04-18 10:58 37.41983 -5.89136 104 ft 16 kts 269°
2026-04-18 10:58 37.41982 -5.89295 102 ft 20 kts 269°
2026-04-18 10:58 37.41982 -5.89484 100 ft 22 kts 270°
2026-04-18 10:59 37.41981 -5.89672 103 ft 21 kts 270°
2026-04-18 10:59 37.41981 -5.89830 104 ft 15 kts 272°
2026-04-18 10:59 37.42035 -5.89901 103 ft 9 kts 336°
2026-04-18 10:59 37.42094 -5.89929 104 ft 9 kts 348°
2026-04-18 11:00 37.42133 -5.89933 104 ft 8 kts 353°
2026-04-18 11:00 37.42200 -5.89956 102 ft 3 kts 345°
2026-04-18 11:00 37.42205 -5.89958 101 ft 0 kts 344°